When you browse on this site, cookies collect data to enhance your experience and personalize the content and advertising you see.
Visit our Privacy Policy to learn more. By continuing to use the site, you agree to this use of cookies and data.
  • Em Portugal
  • Lista de países
  • Para 7 dias
  • Temperatura da água
  • Mapa do tempo
  • Widgets de tempo
  • user-avatar
    Iniciar Sessão

    Previsão horária em Encamp

    Hoje, 27 Fevereiro, Quinta-feira

    Tempo Temperatura Precipitação Vento Pressão Humidade
    00:00 -2°C° 0 mm 1 m/s 620 mmHg 83%
    01:00 -2°C° 0 mm 1 m/s 620 mmHg 80%
    02:00 -2°C° 0 mm 1 m/s 619 mmHg 76%
    03:00 -2°C° 0 mm 1 m/s 619 mmHg 73%
    04:00 -2°C° 0 mm 1 m/s 619 mmHg 72%
    05:00 -2°C° 0 mm 1 m/s 619 mmHg 71%
    06:00 -1°C° 0 mm 1 m/s 619 mmHg 69%
    07:00 0°C° 0.2 mm 1 m/s 619 mmHg 67%
    08:00 +2°C° 0.2 mm 1 m/s 620 mmHg 66%
    09:00 +3°C° 0.2 mm 1 m/s 620 mmHg 64%
    10:00 +4°C° 0.1 mm 2 m/s 621 mmHg 59%
    11:00 +5°C° 0.1 mm 2 m/s 621 mmHg 54%
    12:00 +6°C° 0 mm 2 m/s 622 mmHg 57%
    13:00 +6°C° 0.2 mm 2 m/s 621 mmHg 65%
    14:00 +5°C° 0.2 mm 2 m/s 621 mmHg 72%
    15:00 +5°C° 0.2 mm 2 m/s 620 mmHg 80%
    16:00 +4°C° 0.4 mm 2 m/s 620 mmHg 85%
    17:00 +3°C° 0.4 mm 2 m/s 620 mmHg 90%
    18:00 +2°C° 0.4 mm 2 m/s 620 mmHg 95%
    19:00 +2°C° 0.4 mm 2 m/s 620 mmHg 96%
    20:00 +2°C° 0.4 mm 2 m/s 621 mmHg 96%
    21:00 +1°C° 0.4 mm 3 m/s 621 mmHg 96%
    22:00 +2°C° 0.3 mm 2 m/s 621 mmHg 96%
    23:00 +2°C° 0.3 mm 2 m/s 622 mmHg 96%

    Amanhã, 28 Fevereiro, Sexta-feira

    Tempo Temperatura Precipitação Vento Pressão Humidade
    00:00 +1°C° 0.3 mm 2 m/s 622 mmHg 96%
    01:00 +1°C° 0.3 mm 2 m/s 622 mmHg 96%
    02:00 +1°C° 0.3 mm 2 m/s 622 mmHg 96%
    03:00 +1°C° 0.3 mm 2 m/s 622 mmHg 96%
    04:00 +1°C° 0.1 mm 2 m/s 623 mmHg 95%
    05:00 +1°C° 0.1 mm 2 m/s 623 mmHg 95%
    06:00 +1°C° 0.1 mm 2 m/s 623 mmHg 95%
    07:00 +3°C° 0 mm 1 m/s 624 mmHg 89%
    08:00 +5°C° 0 mm 1 m/s 624 mmHg 83%
    09:00 +6°C° 0 mm 1 m/s 625 mmHg 78%
    10:00 +7°C° 0 mm 1 m/s 625 mmHg 72%
    11:00 +9°C° 0 mm 1 m/s 626 mmHg 67%
    12:00 +10°C° 0 mm 1 m/s 626 mmHg 62%
    13:00 +10°C° 0 mm 1 m/s 626 mmHg 63%
    14:00 +10°C° 0 mm 1 m/s 625 mmHg 65%
    15:00 +10°C° 0 mm 1 m/s 625 mmHg 66%
    16:00 +8°C° 0 mm 1 m/s 624 mmHg 75%
    17:00 +6°C° 0 mm 2 m/s 623 mmHg 83%
    18:00 +4°C° 0 mm 2 m/s 622 mmHg 92%
    19:00 +4°C° 0 mm 2 m/s 622 mmHg 92%
    20:00 +3°C° 0 mm 2 m/s 621 mmHg 93%
    21:00 +3°C° 0 mm 2 m/s 621 mmHg 93%
    22:00 +3°C° 0 mm 2 m/s 620 mmHg 92%
    23:00 +3°C° 0 mm 2 m/s 620 mmHg 90%

    Depois de amanhã, 29 Fevereiro, Sábado

    Tempo Temperatura Precipitação Vento Pressão Humidade
    00:00 +1°C° 0 mm 3 m/s 619 mmHg 89%
    01:00 +1°C° 0 mm 3 m/s 618 mmHg 88%
    02:00 +1°C° 0 mm 3 m/s 617 mmHg 87%
    03:00 0°C° 0 mm 3 m/s 617 mmHg 86%
    04:00 0°C° 0 mm 3 m/s 616 mmHg 85%
    05:00 0°C° 0 mm 3 m/s 616 mmHg 84%
    06:00 0°C° 0 mm 3 m/s 615 mmHg 83%
    07:00 +1°C° 0 mm 3 m/s 616 mmHg 80%
    08:00 +3°C° 0 mm 3 m/s 616 mmHg 76%
    09:00 +4°C° 0 mm 3 m/s 617 mmHg 72%
    10:00 +4°C° 0 mm 3 m/s 617 mmHg 70%
    11:00 +5°C° 0 mm 3 m/s 617 mmHg 68%
    12:00 +7°C° 0 mm 3 m/s 617 mmHg 66%
    13:00 +5°C° 0.1 mm 3 m/s 617 mmHg 70%
    14:00 +6°C° 0.1 mm 2 m/s 617 mmHg 74%
    15:00 +5°C° 0.1 mm 2 m/s 616 mmHg 77%
    16:00 +4°C° 0.1 mm 2 m/s 616 mmHg 83%
    17:00 +4°C° 0.1 mm 1 m/s 616 mmHg 88%
    18:00 +3°C° 0.1 mm 1 m/s 616 mmHg 94%
    19:00 +3°C° 0.1 mm 1 m/s 616 mmHg 94%
    20:00 +2°C° 0.1 mm 1 m/s 617 mmHg 95%
    21:00 +2°C° 0.1 mm 1 m/s 617 mmHg 95%
    22:00 +2°C° 0 mm 1 m/s 617 mmHg 95%
    23:00 +1°C° 0 mm 1 m/s 617 mmHg 95%

    1 Março, Domingo

    Tempo Temperatura Precipitação Vento Pressão Humidade
    00:00 +1°C° 0 mm 1 m/s 617 mmHg 95%
    01:00 +1°C° 0 mm 1 m/s 616 mmHg 94%
    02:00 +1°C° 0 mm 1 m/s 616 mmHg 93%
    03:00 +1°C° 0 mm 1 m/s 616 mmHg 92%
    04:00 +1°C° 0 mm 1 m/s 616 mmHg 92%
    05:00 +1°C° 0 mm 1 m/s 616 mmHg 92%
    06:00 0°C° 0 mm 1 m/s 615 mmHg 92%
    07:00 +1°C° 0 mm 1 m/s 616 mmHg 89%
    08:00 +1°C° 0 mm 2 m/s 616 mmHg 87%
    09:00 +1°C° 0 mm 2 m/s 616 mmHg 85%
    10:00 +2°C° 0 mm 2 m/s 616 mmHg 80%
    11:00 +2°C° 0 mm 3 m/s 616 mmHg 74%
    12:00 +3°C° 0 mm 3 m/s 616 mmHg 69%
    13:00 +3°C° 0.2 mm 3 m/s 615 mmHg 72%
    14:00 +2°C° 0.2 mm 3 m/s 615 mmHg 76%
    15:00 +2°C° 0.2 mm 3 m/s 614 mmHg 79%
    16:00 +1°C° 0.2 mm 3 m/s 614 mmHg 84%
    17:00 +1°C° 0.2 mm 2 m/s 614 mmHg 89%
    18:00 +1°C° 0.2 mm 1 m/s 614 mmHg 94%
    19:00 +1°C° 0 mm 1 m/s 615 mmHg 93%
    20:00 0°C° 0 mm 1 m/s 615 mmHg 93%
    21:00 0°C° 0 mm 1 m/s 615 mmHg 93%
    22:00 -2°C° 0 mm 2 m/s 615 mmHg 91%
    23:00 -2°C° 0 mm 2 m/s 615 mmHg 89%

    2 Março, Segunda-feira

    Tempo Temperatura Precipitação Vento Pressão Humidade
    00:00 -1°C° 0 mm 2 m/s 614 mmHg 88%
    01:00 -1°C° 0 mm 2 m/s 614 mmHg 88%
    02:00 -1°C° 0 mm 2 m/s 614 mmHg 88%
    03:00 -1°C° 0 mm 2 m/s 614 mmHg 88%
    04:00 -1°C° 0.1 mm 2 m/s 613 mmHg 89%
    05:00 +1°C° 0.1 mm 1 m/s 613 mmHg 90%
    06:00 +1°C° 0.1 mm 1 m/s 613 mmHg 91%
    07:00 +1°C° 0 mm 1 m/s 614 mmHg 86%
    08:00 +2°C° 0 mm 1 m/s 614 mmHg 81%
    09:00 +3°C° 0 mm 1 m/s 614 mmHg 75%
    10:00 +4°C° 0.1 mm 1 m/s 615 mmHg 71%
    11:00 +5°C° 0.1 mm 1 m/s 615 mmHg 68%
    12:00 +6°C° 0.1 mm 1 m/s 616 mmHg 64%
    13:00 +5°C° 0.5 mm 1 m/s 615 mmHg 69%
    14:00 +4°C° 0.5 mm 1 m/s 615 mmHg 74%
    15:00 +4°C° 0.5 mm 1 m/s 614 mmHg 79%
    16:00 +3°C° 0.4 mm 1 m/s 614 mmHg 83%
    17:00 +2°C° 0.4 mm 1 m/s 614 mmHg 86%
    18:00 +1°C° 0.4 mm 1 m/s 613 mmHg 89%
    19:00 -2°C° 0.9 mm 2 m/s 614 mmHg 90%
    20:00 -2°C° 0.9 mm 2 m/s 614 mmHg 92%
    21:00 -3°C° 0.9 mm 2 m/s 614 mmHg 93%
    22:00 -3°C° 0.7 mm 2 m/s 614 mmHg 93%
    23:00 -4°C° 0.7 mm 2 m/s 614 mmHg 92%

    3 Março, Terça-feira

    Tempo Temperatura Precipitação Vento Pressão Humidade
    00:00 -5°C° 0.7 mm 2 m/s 614 mmHg 92%
    01:00 -6°C° 1.4 mm 3 m/s 615 mmHg 92%
    02:00 -6°C° 1.4 mm 3 m/s 615 mmHg 92%
    03:00 -7°C° 1.4 mm 3 m/s 615 mmHg 92%
    04:00 -7°C° 0.6 mm 3 m/s 616 mmHg 92%
    05:00 -7°C° 0.6 mm 3 m/s 616 mmHg 92%
    06:00 -7°C° 0.6 mm 3 m/s 617 mmHg 92%
    07:00 -6°C° 0.1 mm 3 m/s 617 mmHg 86%
    08:00 -5°C° 0.1 mm 3 m/s 618 mmHg 80%
    09:00 -4°C° 0.1 mm 3 m/s 619 mmHg 74%
    10:00 -1°C° 0 mm 2 m/s 619 mmHg 68%
    11:00 +2°C° 0 mm 2 m/s 620 mmHg 62%
    12:00 +5°C° 0 mm 1 m/s 620 mmHg 55%
    13:00 +4°C° 0.1 mm 1 m/s 620 mmHg 59%
    14:00 +4°C° 0.1 mm 1 m/s 620 mmHg 63%
    15:00 +4°C° 0.1 mm 1 m/s 619 mmHg 66%
    16:00 +3°C° 1.4 mm 1 m/s 619 mmHg 75%
    17:00 +2°C° 1.4 mm 1 m/s 618 mmHg 85%
    18:00 +1°C° 1.4 mm 1 m/s 617 mmHg 94%
    19:00 +1°C° 2.9 mm 1 m/s 618 mmHg 95%
    20:00 +2°C° 2.9 mm 1 m/s 618 mmHg 97%
    21:00 +2°C° 2.9 mm 1 m/s 618 mmHg 98%
    22:00 +2°C° 2.3 mm 1 m/s 618 mmHg 98%
    23:00 +3°C° 2.3 mm 1 m/s 618 mmHg 98%
    Mostrar mais